ADZ29D LTFJ-LGSM

Flight info

Callsign ADZ29D
Flight time N/A
Altitude 36000
Route MARMA UY255 BIG/N0443F350 UG80 IMR R32 NISOS H59 ORMOS
Aircraft B738/M-SDE3FGHIJ1RWY/LB2

Departure

Time 2026-04-29 17:51
Airport Istanbul Sabiha Gökçen International Airport (LTFJ)

Arrival

Time N/A
Airport Samos Airport (LGSM)
Time Latitude Longitude Altitude Speed Heading
2026-04-29 16:52 40.89614 29.31000 310 ft 0 kts 153°
2026-04-29 17:43 40.89630 29.30990 309 ft 4 kts 155°
2026-04-29 17:43 40.89653 29.30975 309 ft 4 kts 150°
2026-04-29 17:44 40.89676 29.30956 310 ft 4 kts 144°
2026-04-29 17:44 40.89689 29.30944 310 ft 1 kts 144°
2026-04-29 17:44 40.89691 29.30942 310 ft 0 kts 144°
2026-04-29 17:46 40.89690 29.30949 308 ft 3 kts 106°
2026-04-29 17:46 40.89708 29.31007 310 ft 11 kts 58°
2026-04-29 17:46 40.89745 29.31101 310 ft 12 kts 73°
2026-04-29 17:46 40.89718 29.31194 309 ft 11 kts 141°
2026-04-29 17:47 40.89632 29.31252 310 ft 17 kts 154°
2026-04-29 17:47 40.89506 29.31332 306 ft 23 kts 154°
2026-04-29 17:47 40.89353 29.31432 303 ft 25 kts 153°
2026-04-29 17:47 40.89206 29.31440 299 ft 22 kts 189°
2026-04-29 17:48 40.89090 29.31339 301 ft 22 kts 246°
2026-04-29 17:48 40.89011 29.31115 300 ft 30 kts 244°
2026-04-29 17:48 40.88921 29.30876 294 ft 28 kts 244°
2026-04-29 17:48 40.88839 29.30650 288 ft 26 kts 244°
2026-04-29 17:49 40.88764 29.30437 281 ft 25 kts 245°
2026-04-29 17:49 40.88687 29.30243 277 ft 23 kts 243°
2026-04-29 17:49 40.88599 29.30093 277 ft 20 kts 181°
2026-04-29 17:49 40.88476 29.30162 277 ft 19 kts 148°
2026-04-29 17:50 40.88488 29.30272 278 ft 15 kts 63°
2026-04-29 17:50 40.88611 29.30598 292 ft 72 kts 64°
2026-04-29 17:50 40.88920 29.31435 297 ft 131 kts 64°
2026-04-29 17:50 40.89378 29.32693 519 ft 159 kts 60°
2026-04-29 17:51 40.89875 29.33984 1316 ft 159 kts 64°
2026-04-29 17:51 40.90383 29.35374 1729 ft 181 kts 66°
2026-04-29 17:51 40.90963 29.36951 2121 ft 197 kts 65°
2026-04-29 17:51 40.91600 29.38690 2289 ft 224 kts 66°
2026-04-29 17:52 40.92316 29.40616 2718 ft 239 kts 63°
2026-04-29 17:52 40.92798 29.41912 3282 ft 235 kts 64°
2026-04-29 17:52 40.93277 29.44690 4091 ft 250 kts 95°
2026-04-29 17:52 40.92648 29.46941 4433 ft 270 kts 123°
2026-04-29 17:53 40.91329 29.48664 5365 ft 267 kts 147°
2026-04-29 17:53 40.89567 29.49443 6031 ft 274 kts 176°
2026-04-29 17:53 40.87656 29.49012 6437 ft 288 kts 206°
2026-04-29 17:53 40.86086 29.47387 7158 ft 282 kts 232°
2026-04-29 17:54 40.85101 29.45232 8144 ft 272 kts 250°
2026-04-29 17:54 40.84451 29.42871 8898 ft 275 kts 253°
2026-04-29 17:54 40.83846 29.40470 9745 ft 275 kts 255°
2026-04-29 17:54 40.83246 29.38060 10504 ft 279 kts 255°
2026-04-29 17:55 40.82615 29.35528 10733 ft 302 kts 254°
2026-04-29 17:55 40.81942 29.32862 11194 ft 314 kts 254°
2026-04-29 17:55 40.81236 29.30109 12011 ft 318 kts 253°
2026-04-29 17:55 40.80520 29.27345 12913 ft 319 kts 253°
2026-04-29 17:56 40.79794 29.24563 13773 ft 322 kts 253°
2026-04-29 17:56 40.79058 29.21750 14500 ft 326 kts 253°
2026-04-29 17:56 40.78309 29.18900 15258 ft 329 kts 253°
2026-04-29 17:56 40.77555 29.16034 15986 ft 332 kts 253°
2026-04-29 17:57 40.76793 29.13145 16738 ft 335 kts 253°
2026-04-29 17:57 40.76021 29.10222 17457 ft 339 kts 253°
2026-04-29 17:57 40.75238 29.07263 18136 ft 343 kts 253°
2026-04-29 17:57 40.74444 29.04267 18804 ft 346 kts 253°
2026-04-29 17:58 40.73646 29.01259 19449 ft 349 kts 253°
2026-04-29 17:58 40.72850 28.98266 20062 ft 352 kts 253°
2026-04-29 17:58 40.72036 28.95207 20684 ft 355 kts 253°
2026-04-29 17:58 40.71212 28.92112 21238 ft 360 kts 253°
2026-04-29 17:59 40.70377 28.88984 21848 ft 363 kts 253°
2026-04-29 17:59 40.69537 28.85836 22464 ft 365 kts 253°
2026-04-29 17:59 40.68688 28.82662 23048 ft 368 kts 253°
2026-04-29 17:59 40.67831 28.79462 23633 ft 372 kts 252°
2026-04-29 18:00 40.66967 28.76238 24113 ft 374 kts 253°
2026-04-29 18:00 40.66392 28.74093 24449 ft 375 kts 253°